Find Starlink 37273

NORAD ID: 68724 Int'l Des: 2026-081 Owner: SPXS Country: US Constellation: starlink operational
LEOCIRCULAR

实时位置

正在加载3D地球...

关于 Starlink 37273

正在加载描述...

即将过境

Passes for default location (London). Set your location on the main map for personalized predictions.

高度历史

Loading altitude history...

两行轨道根数

1 68724C 26081AA 26105.43451389 .00595300 00000+0 76041-3 0 1056
2 68724 53.1628 237.7332 0007073 304.8494 308.0272 16.06239169 16
Epoch: Apr 15, 2026 • Age: 22 hours

当前状态

高度 268.9 km
速度 7.75 km/s
星下点 -51.36°S, 144.52°E
发射日期 Apr 14, 2026
运行时间 1 days
类型 internet

技术详情

分类 Payload
质量 575.00 kg
干质量 530.00 kg
总质量 575.00 kg
长度 0.30 m
直径 4.10 m
跨度 29.00 m
形状 Box + pan
制造商 SPXS
平台类型 Starlink V2MO
阶段状态 In Orbit
所有者/国家 SPXS/US

Most Searched